[[{"header":{"parameterUnit":"m.s-1","parameterCategory":1,"la1":30.2991,"la2":30.254,"lo1":-89.0895,"lo2":-89.0444,"dy":0.0017,"dx":0.0017,"nx":28,"ny":28,"refTime":"2026-02-02T09:00:00:Z","depth":0,"parameterNumber":2,"parameterNumberName":"U-component_of_WINDS"},"data":[0,0,0,0,0,0,0,0,0,0,0,0,0,0,0,0,0,0,0,0,0,0,0,0,0,0,0,0,0,0,0,0,0,0,0,0,0,0,0,0,0,0,0,0,0,0,0,0,0,0,0,0,0,0,0,0,0,0,3.29,3.29,0,3.2943,3.2943,3.2944,3.2956,3.2956,3.2955,3.2955,3.2994,3.2996,3.2997,0,0,0,0,0,0,0,0,0,0,0,0,0,3.2827,3.2828,3.29,3.2901,3.2901,3.2943,3.2943,3.2944,3.2956,3.2956,3.2955,3.2955,3.2994,3.2996,3.2997,0,0,0,0,0,0,0,0,0,0,0,0,0,3.2863,3.2828,3.29,3.2912,3.2914,3.2943,3.2943,3.2944,3.2956,3.2956,3.2955,3.2955,3.2994,3.2995,3.2997,3.3015,0,0,3.3003,3.3004,0,0,0,0,0,0,0,0,3.2861,3.2865,3.291,3.2911,3.2913,3.2944,3.2932,3.2968,3.2956,3.294,3.2955,3.2955,3.2978,3.2981,3.2989,3.3017,3.3019,3.3003,3.3004,3.3005,3.3006,0,0,0,0,0,0,0,3.2858,3.2864,3.2917,3.2911,3.2913,3.2915,3.292,3.2939,3.296,3.2941,3.2942,3.2947,3.2978,3.2987,3.299,3.3019,3.3003,3.3005,3.3006,3.3007,3.3067,3.3067,0,0,0,0,0,0,3.2854,3.2861,3.2915,3.2918,3.2886,3.2917,3.2922,3.2934,3.296,3.2963,3.2948,3.2948,3.2984,3.2988,3.2992,3.3016,3.3005,3.3007,3.3008,3.3066,3.3067,3.3067,0,0,0,0,0,0,3.2852,3.2859,3.2914,3.289,3.2897,3.2918,3.2932,3.2935,3.2944,3.2965,3.2968,3.2953,3.2984,3.2989,3.301,3.3017,3.3008,3.3009,3.3066,3.3066,3.3067,3.3064,0,0,0,0,0,0,3.285,3.2858,3.2865,3.289,3.2899,3.2932,3.2932,3.2936,3.2948,3.2949,3.2971,3.2974,3.2984,3.3007,3.3012,3.302,3.3011,3.3065,3.3066,3.3067,3.3063,3.3064,3.3065,0,0,0,0,0,3.2848,3.2861,3.2866,3.2872,3.2908,3.2932,3.2937,3.295,3.2949,3.2956,3.297,3.2973,3.3016,3.3009,3.3015,3.3023,3.3065,3.3066,3.3067,3.3063,3.3064,3.3065,0,0,0,0,0,0,3.2834,3.2864,3.287,3.2892,3.291,3.2934,3.2944,3.295,3.2968,3.2967,3.2982,3.2986,3.3007,3.3017,3.3009,3.3043,3.3041,3.3043,3.3036,3.3037,3.3038,3.3035,3.3012,0,0,0,0,0,3.2834,3.2852,3.2877,3.2895,3.2904,3.2922,3.2933,3.2942,3.296,3.2967,3.2982,3.2999,3.3017,3.3027,3.3044,3.3065,3.3071,3.3074,3.3075,3.3076,3.3077,3.3091,3.3093,3.3071,3.3071,3.3071,0,0,3.2833,3.2852,3.2862,3.2892,3.2907,3.2925,3.2928,3.2946,3.296,3.297,3.2991,3.3003,3.3023,3.3044,3.3055,3.3054,3.3085,3.3077,3.3077,3.3078,3.3092,3.3094,3.3096,3.3072,3.3071,3.3071,0,0,3.2841,3.2857,3.2875,3.289,3.2914,3.2927,3.2931,3.2956,3.2965,3.2987,3.2996,3.3011,3.3041,3.3055,3.3066,3.3084,3.3088,3.3089,3.3093,3.3106,3.3108,3.3109,3.3116,3.3118,3.309,3.309,3.309,0,3.2837,3.2865,3.2882,3.2901,3.2915,3.2927,3.2945,3.2959,3.2986,3.2994,3.2993,3.3033,3.3046,3.3073,3.3077,3.3086,3.3091,3.3086,3.3106,3.3108,3.311,3.3117,3.3119,3.309,3.309,3.309,3.309,0,3.286,3.2879,3.289,3.2919,3.2934,3.2952,3.2971,3.2984,3.2992,3.3006,3.3029,3.3047,3.3069,3.3076,3.3083,3.3103,3.3102,3.3104,3.3101,3.3112,3.3118,3.3121,3.309,3.309,3.309,3.309,0,0,3.2857,3.2898,3.2902,3.2916,3.2945,3.296,3.2979,3.3003,3.3014,3.3033,3.3049,3.3076,3.3079,3.3091,3.31,3.3112,3.3126,3.3112,3.3113,3.3115,3.3151,3.315,3.3152,3.313,3.3131,3.3131,3.315,0,3.2869,3.2906,3.2923,3.2951,3.2971,3.2985,3.3002,3.3021,3.3034,3.3052,3.3066,3.3085,3.3087,3.3095,3.3107,3.3122,3.3134,3.3121,3.3145,3.3145,3.3139,3.3156,3.3154,3.317,3.3152,3.3153,3.3153,0,3.2887,3.2909,3.2941,3.297,3.2979,3.2994,3.3018,3.3035,3.3057,3.3067,3.3083,3.3093,3.3113,3.311,3.3139,3.313,3.3141,3.315,3.3151,3.3153,3.3149,3.3158,3.3176,3.3178,3.3157,3.3157,3.3156,0,3.2883,3.2921,3.2945,3.2957,3.2991,3.3002,3.3016,3.3039,3.3053,3.3074,3.3083,3.3106,3.3118,3.3135,3.315,3.3146,3.3178,3.3176,3.3186,3.3185,3.3191,3.319,3.321,3.3198,3.3198,3.3198,3.3198,0,3.2894,3.2913,3.2944,3.2959,3.2981,3.3001,3.3022,3.3037,3.3058,3.3075,3.3088,3.3104,3.3124,3.3143,3.3155,3.3178,3.3183,3.3191,3.3194,3.3189,3.3188,3.3196,3.3195,3.3199,3.3199,3.3199,3.3199,0,3.2893,3.2914,3.2942,3.2974,3.2983,3.2997,3.3024,3.3039,3.3055,3.3077,3.3083,3.3107,3.313,3.3148,3.3177,3.3186,3.321,3.3213,3.3203,3.3204,3.3213,3.3212,3.3239,3.3244,3.3228,3.3228,3.3229,0,3.2898,3.2913,3.2948,3.2963,3.2978,3.3,3.3015,3.3036,3.3051,3.308,3.3092,3.3116,3.3137,3.3173,3.3192,3.3215,3.3219,3.3227,3.3222,3.3218,3.3219,3.3218,3.322,3.3227,3.3227,3.3227,3.3227,0,3.2905,3.2917,3.2939,3.2967,3.2986,3.3008,3.303,3.304,3.3065,3.3082,3.3107,3.3124,3.3155,3.3179,3.3205,3.3219,3.3227,3.3229,3.3232,3.3228,3.3221,3.3226,3.3204,3.3228,3.3227,3.3227,3.3227,3.3227,3.2908,3.2923,3.2951,3.2977,3.2997,3.3018,3.3034,3.3054,3.3076,3.3105,3.3115,3.3141,3.3166,3.3201,3.3216,3.3236,3.3236,3.3241,3.3242,3.3243,3.3243,3.3219,3.324,3.324,3.324,3.324,3.3241,0,3.2916,3.2936,3.296,3.2992,3.3013,3.3022,3.3048,3.3064,3.3087,3.311,3.3132,3.3161,3.3186,3.3209,3.3234,3.3246,3.325,3.3252,3.3251,3.3254,3.3241,3.3236,3.3248,3.3248,3.3248,3.3248,3.3248,3.3248,3.2923,3.295,3.2965,3.3002,3.3022,3.3049,3.3064,3.3083,3.3102,3.3136,3.3157,3.3173,3.3196,3.3224,3.3247,3.3253,3.3261,3.3262,3.3269,3.3256,3.3255,3.3254,3.3249,3.3264,3.3264,3.328,3.328,3.328]},{"header":{"parameterUnit":"m.s-1","parameterCategory":1,"la1":30.2991,"la2":30.254,"lo1":-89.0895,"lo2":-89.0444,"dy":0.0017,"dx":0.0017,"nx":28,"ny":28,"refTime":"2026-02-02T09:00:00:Z","depth":0,"parameterNumber":3,"parameterNumberName":"V-component_of_WINDS"},"data":[0,0,0,0,0,0,0,0,0,0,0,0,0,0,0,0,0,0,0,0,0,0,0,0,0,0,0,0,0,0,0,0,0,0,0,0,0,0,0,0,0,0,0,0,0,0,0,0,0,0,0,0,0,0,0,0,0,0,0.5544,0.5545,0,0.5633,0.5634,0.5635,0.5673,0.5673,0.5673,0.5673,0.5765,0.5768,0.577,0,0,0,0,0,0,0,0,0,0,0,0,0,0.5414,0.5416,0.5544,0.5546,0.5547,0.5633,0.5634,0.5635,0.5673,0.5673,0.5673,0.5673,0.5764,0.5767,0.5771,0,0,0,0,0,0,0,0,0,0,0,0,0,0.5483,0.5417,0.5544,0.5576,0.558,0.5633,0.5634,0.5636,0.5673,0.5673,0.5673,0.5672,0.5763,0.5767,0.5771,0.58,0,0,0.5783,0.5785,0,0,0,0,0,0,0,0,0.5479,0.5488,0.557,0.5574,0.5578,0.5642,0.5622,0.5691,0.5673,0.5638,0.5673,0.5672,0.5724,0.5732,0.5749,0.5804,0.5808,0.5783,0.5786,0.5787,0.5788,0,0,0,0,0,0,0,0.5475,0.5485,0.558,0.5571,0.5576,0.5588,0.5597,0.5635,0.5681,0.5641,0.5644,0.5654,0.5727,0.5745,0.5751,0.5809,0.5783,0.5787,0.5789,0.5791,0.5901,0.5901,0,0,0,0,0,0,0.5464,0.548,0.5577,0.5582,0.5527,0.559,0.5601,0.5622,0.5681,0.569,0.5654,0.5655,0.5738,0.5747,0.5755,0.5797,0.5787,0.5791,0.5793,0.59,0.5901,0.5901,0,0,0,0,0,0,0.5461,0.5472,0.5573,0.5532,0.5546,0.5593,0.5616,0.5623,0.5642,0.5691,0.57,0.5664,0.5738,0.5749,0.579,0.5801,0.5793,0.5796,0.5899,0.59,0.5901,0.5879,0,0,0,0,0,0,0.5457,0.5471,0.548,0.5532,0.5548,0.5605,0.5616,0.5625,0.5648,0.5651,0.5702,0.5711,0.5739,0.5784,0.5794,0.5806,0.5799,0.5899,0.59,0.5901,0.5879,0.5879,0.5879,0,0,0,0,0,0.5452,0.5469,0.5481,0.5492,0.5561,0.5605,0.5614,0.5646,0.5649,0.566,0.5693,0.5709,0.5798,0.5788,0.5799,0.5813,0.5898,0.59,0.5901,0.5879,0.5879,0.5879,0,0,0,0,0,0,0.5417,0.5477,0.549,0.5524,0.5559,0.5611,0.5626,0.5644,0.568,0.5681,0.572,0.5731,0.577,0.5795,0.5783,0.5847,0.585,0.5853,0.5829,0.583,0.583,0.5823,0.5803,0,0,0,0,0,0.5413,0.5443,0.5494,0.5519,0.5537,0.5579,0.5599,0.5621,0.566,0.5675,0.571,0.5748,0.5786,0.5809,0.5845,0.5883,0.5898,0.5899,0.5899,0.5898,0.5901,0.593,0.5932,0.5906,0.5906,0.5906,0,0,0.5405,0.5442,0.5458,0.5513,0.5543,0.5577,0.5591,0.5623,0.5649,0.568,0.5722,0.5749,0.5795,0.5836,0.5856,0.5858,0.5913,0.59,0.5899,0.5903,0.5931,0.5934,0.5936,0.5907,0.5906,0.5906,0,0,0.5409,0.5438,0.5465,0.5496,0.5542,0.557,0.5577,0.5628,0.5648,0.5691,0.5716,0.5749,0.581,0.5843,0.5868,0.5891,0.5909,0.5902,0.5902,0.5929,0.5931,0.5934,0.5946,0.595,0.5904,0.5904,0.5904,0,0.5394,0.5442,0.5476,0.5509,0.5535,0.5566,0.5596,0.5624,0.568,0.5699,0.5701,0.5783,0.5815,0.5867,0.5874,0.5891,0.5903,0.5896,0.5928,0.5931,0.5933,0.5946,0.595,0.5903,0.5903,0.5904,0.5904,0,0.5424,0.5458,0.5475,0.5529,0.5557,0.5588,0.5629,0.5654,0.5675,0.5705,0.5751,0.5792,0.584,0.5854,0.5873,0.5911,0.5912,0.592,0.5924,0.5934,0.5947,0.5952,0.5902,0.5902,0.5903,0.5903,0,0,0.5404,0.5481,0.5487,0.5515,0.5571,0.5599,0.5634,0.5682,0.5704,0.5743,0.5776,0.583,0.5841,0.5869,0.5894,0.5917,0.5939,0.5924,0.5926,0.5929,0.599,0.5985,0.5989,0.5952,0.5953,0.5953,0.5987,0,0.5418,0.5481,0.5515,0.5564,0.5599,0.5632,0.5664,0.5703,0.5733,0.5769,0.5803,0.5843,0.5851,0.587,0.5894,0.5931,0.5953,0.5929,0.5986,0.5988,0.5976,0.5995,0.5988,0.6018,0.5992,0.5993,0.5993,0,0.5441,0.5481,0.5534,0.5592,0.5608,0.5635,0.5685,0.5718,0.5766,0.5787,0.5821,0.5847,0.5889,0.5889,0.5951,0.5935,0.5961,0.5983,0.5985,0.5993,0.5992,0.6007,0.6028,0.6033,0.6001,0.6,0.6,0,0.5426,0.5494,0.5536,0.5558,0.5625,0.5645,0.5674,0.5721,0.575,0.5794,0.5814,0.5862,0.5889,0.5928,0.5968,0.5963,0.6028,0.6029,0.605,0.6049,0.6062,0.6061,0.609,0.6074,0.6074,0.6074,0.6074,0,0.5439,0.5471,0.5531,0.5557,0.5597,0.5638,0.5676,0.5708,0.5751,0.5787,0.5818,0.5851,0.5901,0.5942,0.5973,0.6023,0.6033,0.6054,0.6063,0.6053,0.6051,0.6072,0.6072,0.6075,0.6075,0.6075,0.6075,0,0.5428,0.5469,0.5519,0.558,0.5596,0.5623,0.5677,0.5706,0.5739,0.5784,0.5798,0.5851,0.5901,0.5945,0.601,0.6032,0.6084,0.6093,0.6068,0.6073,0.6092,0.6091,0.6138,0.6149,0.6122,0.6122,0.6122,0,0.5434,0.5461,0.5526,0.5552,0.5581,0.5622,0.5653,0.5696,0.5727,0.5788,0.581,0.5863,0.5907,0.5987,0.6033,0.6086,0.6098,0.6111,0.6106,0.6097,0.6103,0.6102,0.6107,0.6111,0.6111,0.6111,0.6111,0,0.5442,0.5463,0.5505,0.5556,0.5592,0.5633,0.5677,0.5697,0.5749,0.5783,0.5836,0.587,0.594,0.5994,0.6053,0.6086,0.6109,0.6113,0.6121,0.6112,0.6099,0.6111,0.6072,0.6112,0.6112,0.6112,0.6112,0.6112,0.5443,0.547,0.5522,0.5569,0.5607,0.5648,0.568,0.5719,0.5763,0.5823,0.5847,0.5902,0.5956,0.6037,0.6071,0.6117,0.6121,0.6131,0.6135,0.6137,0.6138,0.609,0.6128,0.6128,0.6128,0.6128,0.6128,0,0.5456,0.5492,0.5535,0.5596,0.5635,0.5654,0.5704,0.5736,0.5784,0.5832,0.5876,0.594,0.5994,0.6047,0.6105,0.6132,0.6145,0.6146,0.6146,0.6154,0.6129,0.6118,0.6135,0.6135,0.6135,0.6135,0.6135,0.6135,0.5467,0.5515,0.5543,0.5613,0.565,0.5704,0.5732,0.5772,0.5811,0.5881,0.5926,0.596,0.6012,0.6075,0.6128,0.6142,0.6164,0.6163,0.6181,0.6156,0.6155,0.6154,0.6144,0.6166,0.6166,0.6202,0.6203,0.6203]}]]